Showing default

ARC-1, 40969

Orbit data source: Space-Track

ARC-1, 40969 is a payload satellite owned by Alaska (US) in LEO that was launched on Thu, 08 Oct 2015 UTC via an ATLAS V 401 launch vehicle from the Air Force Western Test Range (AFWTR). Payload-class satellites include a variety of spacecraft equipped with specific instruments for various scientific and technological missions. These include communications satellites like Starlink; space stations such as the ISS; scientific satellites like the Hubble; Earth observation satellites from companies like Planet Labs, Umbra, and HawkEye 360; GPS; miniature CubeSats for education and research; and military/defense satellites.

Loading next visibility...
Identifier
40969, 2015-058F
Orbit
LEO
Country
Flag of USUS
Related business
Manufacturer
Alaska
Mission
Non-operational Amateur Technology
Bus & Motor
CUBESAT 1U, Unknown motor
Mass
1 kg wet, 1 kg dry
Launch date (UTC)
2015-10-08 (10 years ago)
Launch vehicle
ATLAS V 401
Launch site
Air Force Western Test Range (AFWTR)
Object type
Payload
Rocket body
Debris
Shape & HBR
Box, 0.1 m
Radar Cross Section
0.015 m², Medium (>0.1 m² and < 1m²)

Expand to show TLE details & history
Last TLE update: 19 hours ago

TLE from 19 hours ago
0 ARC-1
1 40969U 15058F   26036.80150596  .00067655  00000-0  18329-2 0  9992
2 40969  64.7655 199.3268 0040924  86.7597 273.8218 15.36403051 96769
Epoch: 2026-02-05T19:14Z
TLE epoch observation values (Epoch: 2026-02-05T19:14:10.114Z)
Latitude
-0.00008°
Longitude
134.8361°
Altitude
457.053 km
Speed
7.64 km/s
True Right ascension
13h 17m 18s
True Declination
0° 00' 00"
Sunlit
Object was in full shadow at epoch
Visualization orbit readout
Latitude
Unknown
Longitude
Unknown
Altitude
Unknown
Speed
Unknown
Apparent Right ascension
Unknown
Apparent Declination
Unknown
Sunlit
N/A
Visualization observer readout
Local Sidereal Time
16:23:32
Azimuth
Unknown
Elevation
Unknown
Doppler factor
Unknown
Orbital elements
Apogee altitude
483.261 km
Perigee altitude
427.33 km
Semi-major axis
6,833.433 km
Eccentricity
0.00409
Inclination
64.7655°
RAAN
199.3268°
Arg. of periapsis
86.7597°
True anomaly
273.35373°
Mean anomaly
273.8218°
Eccentric anomaly
273.58778°
Mean motion
3.84224 °/min
Orbital period
93.7 mins
BSTAR
0.0018329
Loading maneuver chart data...
Computing Atmospheric mass density...
Loading historical data...
Loading historical data...
Loading historical data...
Loading historical data...
Loading historical data...
Loading historical data...
Loading historical data...

Documentation

Showing up to 5 results
|